カタログに戻る

STARLINK-11383

運用中通信VLEO
NORAD 61883·PAYLOAD·🇺🇸 United States

打ち上げ Nov 9, 2024 から Vandenberg Space Force Base

Loading…

次のパス (今後24時間)

TLE

最新Source: CelesTrak SupGP

元期: Sep 15, 2026, 03:25 UTC

1 61883C 24204K   26258.14284722  .00086489  00000+0  71232-3 0  2581
2 61883  53.1567 142.1575 0000986  87.0752 239.7968 15.69670253    11

AllMySatでSTARLINK-11383をリアルタイム追跡

Download on the App Store